CDT,Max TemperatureF,Mean TemperatureF,Min TemperatureF,Max Dew PointF,MeanDew PointF,Min DewpointF,Max Humidity, Mean Humidity, Min Humidity, Max Sea Level PressureIn, Mean Sea Level PressureIn, Min Sea Level PressureIn, Max VisibilityMiles, Mean VisibilityMiles, Min VisibilityMiles, Max Wind SpeedMPH, Mean Wind SpeedMPH, Max Gust SpeedMPH,PrecipitationIn, CloudCover, Events, WindDirDegrees
2010-10-1,81,62,42,50,45,41,96,61,26,30.21,30.13,30.05,10,8,0,28,6,35,0.00,0,,242
2010-10-2,63,50,36,45,39,34,89,63,36,30.42,30.36,30.19,10,10,10,22,11,25,0.00,0,,20
2010-10-3,64,47,30,40,35,31,100,67,34,30.47,30.40,30.32,10,10,7,13,6,17,0.00,0,,142
2010-10-4,68,53,37,40,38,34,85,59,32,30.36,30.30,30.23,10,9,6,21,10,25,0.00,0,,169
2010-10-5,77,59,41,48,44,38,89,61,33,30.30,30.25,30.19,10,10,10,22,11,30,0.00,0,,173
2010-10-6,80,65,49,55,49,43,93,68,42,30.22,30.19,30.14,10,10,8,17,6,21,0.00,0,,332
2010-10-7,78,59,40,43,39,36,82,52,21,30.29,30.20,30.10,10,10,10,9,3,13,0.00,0,,141
2010-10-8,91,69,46,55,48,42,86,55,24,30.08,29.98,29.89,10,10,10,20,8,25,0.00,0,,182
2010-10-9,81,67,52,54,49,44,89,61,33,29.97,29.92,29.87,10,10,10,12,4,16,0.00,0,,211
2010-10-10,77,60,43,51,47,43,93,65,36,29.99,29.92,29.86,10,10,10,15,5,18,0.01,1,,194
2010-10-11,70,63,55,55,54,52,93,73,53,29.91,29.88,29.84,10,10,8,13,5,15,0.04,6,Rain,54
2010-10-12,75,62,49,55,49,41,100,70,40,30.26,30.07,29.90,10,9,4,28,10,35,0.00,1,,343
2010-10-13,70,53,35,41,35,26,82,51,20,30.38,30.33,30.27,10,10,7,21,7,25,0.00,0,,330
2010-10-14,78,56,34,39,35,31,89,53,17,30.32,30.15,30.04,10,10,9,20,6,25,0.00,0,,303
2010-10-15,75,54,33,42,37,32,92,60,27,30.21,30.10,29.98,10,10,9,16,6,25,0.00,0,,171
2010-10-16,75,58,40,45,40,33,71,50,29,30.18,30.04,29.92,10,10,10,23,10,29,0.00,0,,348
2010-10-17,68,51,34,37,33,30,89,59,28,30.22,30.12,30.01,10,10,10,12,6,15,0.00,0,,32
2010-10-18,66,50,34,35,33,30,79,55,30,30.12,30.08,30.02,10,9,5,13,6,16,0.00,0,,12
2010-10-19,71,50,29,39,33,28,89,56,22,30.12,30.04,29.92,10,10,9,20,5,23,0.00,1,,252
2010-10-20,77,56,34,37,33,29,82,50,18,30.02,29.98,29.91,10,10,9,20,5,25,0.00,0,,307
2010-10-21,68,50,32,39,32,27,89,56,22,30.14,30.05,29.98,10,10,7,13,5,16,0.00,0,,71
2010-10-22,75,58,41,55,45,33,79,62,44,29.96,29.88,29.78,10,10,10,21,8,25,0.00,1,,156
2010-10-23,79,69,58,63,58,51,100,72,43,29.78,29.70,29.57,10,8,4,30,13,37,0.00,4,,160
2010-10-24,64,53,41,54,51,46,100,84,67,29.65,29.62,29.56,10,10,7,16,7,21,0.00,4,,251
2010-10-25,74,57,40,55,48,39,100,72,44,29.55,29.25,29.00,10,9,2,26,15,36,0.07,2,Rain,207
2010-10-26,64,56,47,45,34,26,80,53,25,29.53,29.34,29.16,10,10,10,36,19,46,0.01,5,Rain,270
2010-10-27,56,47,37,30,28,24,64,48,32,30.23,29.84,29.54,10,10,10,36,20,48,0.00,2,,287
2010-10-28,58,43,27,26,22,15,72,46,20,30.48,30.41,30.25,10,10,8,25,9,31,0.00,0,,321
2010-10-29,72,49,25,33,28,21,81,51,20,30.43,30.14,29.90,10,10,9,32,14,38,0.00,0,,184
2010-10-30,70,55,39,37,33,31,76,50,24,30.06,29.94,29.86,10,10,10,16,7,22,0.00,0,,18
2010-10-31,56,46,35,36,35,33,92,69,46,30.25,30.15,30.07,10,9,6,17,8,23,0.00,1,,47